Time,TemperatureF,DewpointF,PressureIn,WindDirection,WindDirectionDegrees,WindSpeedMPH,WindSpeedGustMPH,Humidity,HourlyPrecipIn,Conditions,Clouds,dailyrainin,SoftwareType,DateUTC
2013-11-06 00:56:00,54.5,51.3,29.07,SW,225,0.0,0.0,89,0.00,,,0.00,WUHU21623XXSP,2013-11-06 06:56:00,
2013-11-06 01:56:00,55.4,52.2,29.05,WSW,248,0.0,0.0,89,0.00,,,0.00,WUHU21623XXSP,2013-11-06 07:56:00,
2013-11-06 02:56:00,55.6,52.4,29.03,SW,225,0.0,0.0,89,0.00,,,0.00,WUHU21623XXSP,2013-11-06 08:56:00,
2013-11-06 03:56:00,55.9,52.7,29.02,SSW,203,3.1,3.1,89,0.00,,,0.05,WUHU21623XXSP,2013-11-06 09:56:00,
2013-11-06 04:56:00,55.9,53.0,29.02,SW,225,0.0,0.0,90,0.00,,,0.17,WUHU21623XXSP,2013-11-06 10:56:00,
2013-11-06 06:03:00,54.1,50.9,29.05,NW,315,2.2,2.2,89,0.00,,,0.23,WUHU21623XXSP,2013-11-06 12:03:00,
2013-11-06 06:08:00,50.9,46.5,29.05,WSW,247,6.3,6.3,85,0.03,,,0.25,WUHU21623XXSP,2013-11-06 12:08:00,
2013-11-06 06:13:00,50.2,46.1,29.05,West,270,6.9,6.9,85,0.03,,,0.25,WUHU21623XXSP,2013-11-06 12:13:00,
2013-11-06 06:18:00,49.6,45.2,29.06,West,270,7.4,7.4,85,0.03,,,0.25,WUHU21623XXSP,2013-11-06 12:18:00,
2013-11-06 06:23:00,48.9,44.9,29.07,NW,315,4.0,7.4,84,0.03,,,0.25,WUHU21623XXSP,2013-11-06 12:23:00,
2013-11-06 06:28:00,48.6,43.9,29.07,WNW,292,7.8,7.8,84,0.03,,,0.25,WUHU21623XXSP,2013-11-06 12:28:00,
2013-11-06 06:33:00,48.6,43.9,29.07,WNW,292,7.8,7.8,84,0.03,,,0.25,WUHU21623XXSP,2013-11-06 12:33:00,
2013-11-06 06:38:00,48.6,43.6,29.06,West,270,2.5,7.8,83,0.03,,,0.25,WUHU21623XXSP,2013-11-06 12:38:00,
2013-11-06 06:43:00,46.6,42.0,29.06,NW,315,0.0,7.8,84,0.03,,,0.25,WUHU21623XXSP,2013-11-06 12:43:00,
2013-11-06 06:48:00,46.2,41.7,29.07,NW,315,0.0,2.0,84,0.03,,,0.25,WUHU21623XXSP,2013-11-06 12:48:00,
2013-11-06 06:53:00,46.0,41.8,29.07,West,270,0.0,2.0,85,0.03,,,0.25,WUHU21623XXSP,2013-11-06 12:53:00,
2013-11-06 06:58:00,45.9,41.8,29.07,West,270,0.0,1.8,85,0.03,,,0.25,WUHU21623XXSP,2013-11-06 12:58:00,
2013-11-06 07:03:00,45.5,41.3,29.09,NW,315,4.5,4.5,85,0.03,,,0.25,WUHU21623XXSP,2013-11-06 13:03:00,
2013-11-06 07:08:00,45.1,40.9,29.10,North,0,3.6,4.5,85,0.00,,,0.25,WUHU21623XXSP,2013-11-06 13:08:00,
2013-11-06 07:13:00,45.0,40.7,29.10,North,0,3.6,3.6,85,0.00,,,0.25,WUHU21623XXSP,2013-11-06 13:13:00,
2013-11-06 07:18:00,44.4,40.2,29.10,WNW,292,0.9,3.6,85,0.00,,,0.25,WUHU21623XXSP,2013-11-06 13:18:00,
2013-11-06 07:23:00,44.2,40.2,29.11,West,270,0.0,7.6,85,0.00,,,0.25,WUHU21623XXSP,2013-11-06 13:23:00,
2013-11-06 07:28:00,43.9,39.6,29.12,NW,315,1.8,7.6,85,0.00,,,0.25,WUHU21623XXSP,2013-11-06 13:28:00,
2013-11-06 07:33:00,43.5,39.5,29.12,NNW,337,0.0,1.8,85,0.00,,,0.25,WUHU21623XXSP,2013-11-06 13:33:00,
2013-11-06 07:38:00,43.2,39.1,29.12,WNW,292,2.7,2.9,85,0.00,,,0.25,WUHU21623XXSP,2013-11-06 13:38:00,
2013-11-06 07:43:00,43.0,38.9,29.12,WNW,292,0.0,2.9,85,0.00,,,0.25,WUHU21623XXSP,2013-11-06 13:43:00,
2013-11-06 07:48:00,43.0,38.8,29.12,WNW,292,0.0,1.3,85,0.00,,,0.25,WUHU21623XXSP,2013-11-06 13:48:00,
2013-11-06 07:53:00,42.6,38.4,29.13,NW,315,1.6,1.6,85,0.00,,,0.25,WUHU21623XXSP,2013-11-06 13:53:00,
2013-11-06 07:58:00,42.6,38.4,29.14,NW,315,1.6,1.6,85,0.00,,,0.25,WUHU21623XXSP,2013-11-06 13:58:00,
2013-11-06 08:03:00,42.4,38.4,29.14,NNW,337,0.0,1.6,85,0.00,,,0.25,WUHU21623XXSP,2013-11-06 14:03:00,
2013-11-06 08:08:00,42.1,38.0,29.14,NNW,337,2.2,2.2,85,0.00,,,0.25,WUHU21623XXSP,2013-11-06 14:08:00,
2013-11-06 08:13:00,41.9,37.7,29.13,NW,315,0.0,2.2,85,0.00,,,0.25,WUHU21623XXSP,2013-11-06 14:13:00,
2013-11-06 08:18:00,41.7,37.5,29.13,NW,315,0.0,0.0,85,0.00,,,0.25,WUHU21623XXSP,2013-11-06 14:18:00,
2013-11-06 08:23:00,41.7,37.5,29.13,West,270,1.8,1.8,85,0.00,,,0.25,WUHU21623XXSP,2013-11-06 14:23:00,
2013-11-06 08:28:00,41.5,37.3,29.13,West,270,0.0,1.8,85,0.00,,,0.25,WUHU21623XXSP,2013-11-06 14:28:00,
2013-11-06 08:33:00,41.5,37.3,29.14,West,270,4.5,4.5,85,0.00,,,0.25,WUHU21623XXSP,2013-11-06 14:33:00,
2013-11-06 08:38:00,41.4,37.1,29.15,WNW,292,0.0,5.6,85,0.00,,,0.25,WUHU21623XXSP,2013-11-06 14:38:00,
2013-11-06 08:43:00,41.4,37.4,29.14,NNW,337,0.0,5.6,86,0.00,,,0.25,WUHU21623XXSP,2013-11-06 14:43:00,
2013-11-06 08:48:00,41.4,37.4,29.15,North,0,4.7,4.7,86,0.00,,,0.25,WUHU21623XXSP,2013-11-06 14:48:00,
2013-11-06 08:53:00,41.4,37.4,29.16,West,270,8.7,8.7,86,0.00,,,0.25,WUHU21623XXSP,2013-11-06 14:53:00,
2013-11-06 08:58:00,41.4,37.4,29.18,West,270,2.9,8.7,86,0.00,,,0.25,WUHU21623XXSP,2013-11-06 14:58:00,
2013-11-06 09:03:00,41.4,37.4,29.18,West,270,2.9,8.7,86,0.00,,,0.25,WUHU21623XXSP,2013-11-06 15:03:00,
2013-11-06 09:08:00,41.4,37.1,29.18,ENE,67,0.0,2.9,85,0.00,,,0.25,WUHU21623XXSP,2013-11-06 15:08:00,
2013-11-06 09:13:00,41.4,37.1,29.18,NNW,337,0.0,2.7,85,0.00,,,0.25,WUHU21623XXSP,2013-11-06 15:13:00,
2013-11-06 09:18:00,41.5,37.3,29.18,West,270,0.0,0.0,85,0.00,,,0.25,WUHU21623XXSP,2013-11-06 15:18:00,
2013-11-06 09:23:00,41.4,37.1,29.17,NE,45,0.0,0.0,85,0.00,,,0.25,WUHU21623XXSP,2013-11-06 15:23:00,
2013-11-06 09:28:00,41.4,37.1,29.18,NW,315,0.0,0.0,85,0.00,,,0.25,WUHU21623XXSP,2013-11-06 15:28:00,
2013-11-06 09:33:00,41.4,37.1,29.18,West,270,0.9,0.9,85,0.00,,,0.25,WUHU21623XXSP,2013-11-06 15:33:00,
2013-11-06 09:38:00,41.5,37.3,29.19,NE,45,8.5,8.5,85,0.00,,,0.25,WUHU21623XXSP,2013-11-06 15:38:00,
2013-11-06 09:43:00,41.5,37.3,29.19,NE,45,8.5,8.5,85,0.00,,,0.25,WUHU21623XXSP,2013-11-06 15:43:00,
2013-11-06 09:48:00,41.4,37.3,29.20,NNW,337,5.6,8.5,84,0.00,,,0.25,WUHU21623XXSP,2013-11-06 15:48:00,
2013-11-06 09:53:00,41.4,36.8,29.20,NNW,337,0.0,5.6,84,0.00,,,0.25,WUHU21623XXSP,2013-11-06 15:53:00,
2013-11-06 09:58:00,41.5,36.8,29.20,NNW,337,0.0,0.0,84,0.00,,,0.25,WUHU21623XXSP,2013-11-06 15:58:00,
2013-11-06 10:03:00,41.5,37.0,29.20,SSE,157,0.0,1.3,84,0.00,,,0.25,WUHU21623XXSP,2013-11-06 16:03:00,
2013-11-06 10:08:00,42.1,37.5,29.21,NNW,337,0.0,1.3,84,0.00,,,0.25,WUHU21623XXSP,2013-11-06 16:08:00,
2013-11-06 10:13:00,42.1,37.5,29.21,NE,45,1.1,1.1,84,0.00,,,0.25,WUHU21623XXSP,2013-11-06 16:13:00,
2013-11-06 10:18:00,42.3,37.7,29.21,North,0,0.0,1.1,84,0.00,,,0.25,WUHU21623XXSP,2013-11-06 16:18:00,
2013-11-06 10:23:00,42.1,37.2,29.21,NNW,337,6.7,6.7,83,0.00,,,0.25,WUHU21623XXSP,2013-11-06 16:23:00,
2013-11-06 10:28:00,41.9,36.8,29.21,North,0,3.6,6.7,82,0.00,,,0.25,WUHU21623XXSP,2013-11-06 16:28:00,
2013-11-06 10:33:00,41.9,36.6,29.22,NE,45,1.1,6.7,82,0.00,,,0.25,WUHU21623XXSP,2013-11-06 16:33:00,
2013-11-06 10:38:00,41.9,36.8,29.21,NE,45,1.1,1.1,83,0.00,,,0.25,WUHU21623XXSP,2013-11-06 16:38:00,
2013-11-06 10:43:00,41.9,36.8,29.22,NE,45,1.1,1.1,82,0.00,,,0.25,WUHU21623XXSP,2013-11-06 16:43:00,
2013-11-06 10:48:00,42.1,36.8,29.22,NNW,337,2.9,2.9,82,0.00,,,0.25,WUHU21623XXSP,2013-11-06 16:48:00,
2013-11-06 10:53:00,42.1,36.6,29.22,NNE,22,0.0,2.9,81,0.00,,,0.25,WUHU21623XXSP,2013-11-06 16:53:00,
2013-11-06 10:58:00,42.1,36.6,29.23,NNE,22,0.0,2.9,82,0.00,,,0.25,WUHU21623XXSP,2013-11-06 16:58:00,
2013-11-06 11:03:00,42.1,36.9,29.23,West,270,0.0,0.0,82,0.00,,,0.25,WUHU21623XXSP,2013-11-06 17:03:00,
2013-11-06 11:08:00,42.1,37.0,29.23,West,270,0.0,0.0,81,0.00,,,0.25,WUHU21623XXSP,2013-11-06 17:08:00,
2013-11-06 11:13:00,42.1,36.6,29.24,North,0,0.0,0.0,81,0.00,,,0.25,WUHU21623XXSP,2013-11-06 17:13:00,
2013-11-06 11:18:00,42.1,36.9,29.23,NNW,337,0.0,0.0,82,0.00,,,0.25,WUHU21623XXSP,2013-11-06 17:18:00,
2013-11-06 11:23:00,41.9,36.6,29.24,NNW,337,0.0,0.0,81,0.00,,,0.25,WUHU21623XXSP,2013-11-06 17:23:00,
2013-11-06 11:28:00,41.7,36.3,29.24,NNW,337,0.0,8.3,81,0.00,,,0.25,WUHU21623XXSP,2013-11-06 17:28:00,
2013-11-06 11:33:00,41.9,36.4,29.24,NE,45,0.0,8.3,81,0.00,,,0.25,WUHU21623XXSP,2013-11-06 17:33:00,
2013-11-06 11:38:00,41.9,36.4,29.24,NNE,22,0.0,0.0,81,0.00,,,0.25,WUHU21623XXSP,2013-11-06 17:38:00,
2013-11-06 11:43:00,42.1,36.6,29.24,North,0,9.6,9.6,81,0.00,,,0.25,WUHU21623XXSP,2013-11-06 17:43:00,
2013-11-06 11:48:00,42.4,37.0,29.25,NNE,22,7.2,9.6,81,0.00,,,0.25,WUHU21623XXSP,2013-11-06 17:48:00,
2013-11-06 11:53:00,42.6,37.2,29.25,West,270,0.0,8.7,81,0.00,,,0.25,WUHU21623XXSP,2013-11-06 17:53:00,
2013-11-06 11:58:00,43.0,37.5,29.24,West,270,0.0,7.2,81,0.00,,,0.25,WUHU21623XXSP,2013-11-06 17:58:00,
2013-11-06 12:03:00,43.2,37.1,29.25,WNW,292,0.0,0.0,79,0.00,,,0.25,WUHU21623XXSP,2013-11-06 18:03:00,
2013-11-06 12:08:00,43.2,37.1,29.25,North,0,3.8,3.8,79,0.00,,,0.25,WUHU21623XXSP,2013-11-06 18:08:00,
2013-11-06 12:13:00,43.3,37.2,29.24,NW,315,0.0,3.8,79,0.00,,,0.25,WUHU21623XXSP,2013-11-06 18:13:00,
2013-11-06 12:18:00,43.3,37.2,29.24,NE,45,0.0,0.0,79,0.00,,,0.25,WUHU21623XXSP,2013-11-06 18:18:00,
2013-11-06 12:23:00,43.3,37.2,29.25,WNW,292,1.6,1.6,79,0.00,,,0.25,WUHU21623XXSP,2013-11-06 18:23:00,
2013-11-06 12:28:00,43.3,37.2,29.25,NNE,22,3.8,3.8,79,0.00,,,0.25,WUHU21623XXSP,2013-11-06 18:28:00,
2013-11-06 12:33:00,43.5,37.1,29.25,NNE,22,3.1,3.8,78,0.00,,,0.25,WUHU21623XXSP,2013-11-06 18:33:00,
2013-11-06 12:38:00,43.5,37.1,29.25,North,0,5.4,5.4,78,0.00,,,0.25,WUHU21623XXSP,2013-11-06 18:38:00,
2013-11-06 12:43:00,43.5,37.1,29.25,North,0,0.0,5.4,78,0.00,,,0.25,WUHU21623XXSP,2013-11-06 18:43:00,
2013-11-06 12:48:00,43.5,37.1,29.25,NNE,22,0.4,4.3,78,0.00,,,0.25,WUHU21623XXSP,2013-11-06 18:48:00,
2013-11-06 12:53:00,43.5,37.1,29.25,NNE,22,0.4,0.4,78,0.00,,,0.25,WUHU21623XXSP,2013-11-06 18:53:00,
2013-11-06 12:58:00,43.7,37.3,29.25,WNW,292,2.0,2.0,78,0.00,,,0.25,WUHU21623XXSP,2013-11-06 18:58:00,
2013-11-06 13:03:00,43.9,37.1,29.25,WNW,292,2.0,2.0,77,0.00,,,0.25,WUHU21623XXSP,2013-11-06 19:03:00,
2013-11-06 13:08:00,43.9,36.8,29.26,NNW,337,3.4,3.4,76,0.00,,,0.25,WUHU21623XXSP,2013-11-06 19:08:00,
2013-11-06 13:13:00,43.9,36.8,29.26,NNE,22,1.3,3.4,76,0.00,,,0.25,WUHU21623XXSP,2013-11-06 19:13:00,
2013-11-06 13:18:00,44.2,37.5,29.26,NNW,337,3.1,3.1,77,0.00,,,0.25,WUHU21623XXSP,2013-11-06 19:18:00,
2013-11-06 13:23:00,44.4,37.3,29.27,NNW,337,0.0,3.1,77,0.00,,,0.25,WUHU21623XXSP,2013-11-06 19:23:00,
2013-11-06 13:28:00,44.8,37.7,29.28,NW,315,1.6,1.6,76,0.00,,,0.25,WUHU21623XXSP,2013-11-06 19:28:00,
2013-11-06 13:33:00,45.1,38.0,29.27,NNE,22,10.5,10.5,76,0.00,,,0.25,WUHU21623XXSP,2013-11-06 19:33:00,
2013-11-06 13:38:00,45.1,37.3,29.27,NE,45,0.0,10.5,74,0.00,,,0.25,WUHU21623XXSP,2013-11-06 19:38:00,
2013-11-06 13:43:00,45.1,37.3,29.27,NE,45,0.0,6.0,74,0.00,,,0.25,WUHU21623XXSP,2013-11-06 19:43:00,
2013-11-06 13:48:00,45.7,37.9,29.28,NE,45,0.0,2.0,75,0.00,,,0.25,WUHU21623XXSP,2013-11-06 19:48:00,
2013-11-06 13:53:00,45.7,37.9,29.28,West,270,0.0,2.7,74,0.00,,,0.25,WUHU21623XXSP,2013-11-06 19:53:00,
2013-11-06 13:58:00,45.9,37.7,29.28,NNW,337,4.3,4.3,73,0.00,,,0.25,WUHU21623XXSP,2013-11-06 19:58:00,
2013-11-06 14:03:00,45.7,37.2,29.29,NE,45,0.0,4.3,72,0.00,,,0.25,WUHU21623XXSP,2013-11-06 20:03:00,
2013-11-06 14:08:00,45.7,37.2,29.29,North,0,0.0,1.8,72,0.00,,,0.25,WUHU21623XXSP,2013-11-06 20:08:00,
2013-11-06 14:13:00,45.7,37.2,29.28,NNW,337,1.3,1.3,72,0.00,,,0.25,WUHU21623XXSP,2013-11-06 20:13:00,
2013-11-06 14:18:00,46.0,37.5,29.28,WSW,247,0.0,1.3,72,0.00,,,0.25,WUHU21623XXSP,2013-11-06 20:18:00,
2013-11-06 14:23:00,46.4,37.9,29.29,West,270,0.0,1.3,72,0.00,,,0.25,WUHU21623XXSP,2013-11-06 20:23:00,
2013-11-06 14:28:00,46.8,38.1,29.29,West,270,0.0,0.0,72,0.00,,,0.25,WUHU21623XXSP,2013-11-06 20:28:00,
2013-11-06 14:33:00,46.9,38.0,29.29,SE,135,0.0,0.0,71,0.00,,,0.25,WUHU21623XXSP,2013-11-06 20:33:00,
2013-11-06 14:38:00,47.1,38.2,29.30,NNE,22,0.0,0.0,71,0.00,,,0.25,WUHU21623XXSP,2013-11-06 20:38:00,
2013-11-06 14:43:00,46.9,38.0,29.30,NNE,22,0.0,0.0,71,0.00,,,0.25,WUHU21623XXSP,2013-11-06 20:43:00,
2013-11-06 14:48:00,46.8,37.9,29.30,West,270,0.0,0.0,71,0.00,,,0.25,WUHU21623XXSP,2013-11-06 20:48:00,
2013-11-06 14:53:00,46.8,37.5,29.30,NNE,22,2.7,2.7,70,0.00,,,0.25,WUHU21623XXSP,2013-11-06 20:53:00,
2013-11-06 14:58:00,46.6,37.4,29.30,NNE,22,2.7,2.7,70,0.00,,,0.25,WUHU21623XXSP,2013-11-06 20:58:00,
2013-11-06 15:03:00,47.1,37.5,29.30,WNW,292,0.0,2.7,69,0.00,,,0.25,WUHU21623XXSP,2013-11-06 21:03:00,
2013-11-06 15:08:00,47.3,37.3,29.31,NNW,337,1.1,2.9,68,0.00,,,0.25,WUHU21623XXSP,2013-11-06 21:08:00,
2013-11-06 15:13:00,47.5,37.8,29.31,NW,315,0.0,2.9,69,0.00,,,0.25,WUHU21623XXSP,2013-11-06 21:13:00,
2013-11-06 15:18:00,47.8,37.4,29.31,WNW,292,0.0,0.0,67,0.00,,,0.25,WUHU21623XXSP,2013-11-06 21:18:00,
2013-11-06 15:23:00,47.8,37.7,29.31,West,270,0.0,0.0,68,0.00,,,0.25,WUHU21623XXSP,2013-11-06 21:23:00,
2013-11-06 15:28:00,47.5,37.6,29.32,NNW,337,0.0,0.0,68,0.00,,,0.25,WUHU21623XXSP,2013-11-06 21:28:00,
2013-11-06 15:33:00,47.3,36.9,29.33,NNW,337,0.0,0.0,67,0.00,,,0.25,WUHU21623XXSP,2013-11-06 21:33:00,
2013-11-06 15:38:00,47.1,36.3,29.33,NNE,22,0.0,0.0,66,0.00,,,0.25,WUHU21623XXSP,2013-11-06 21:38:00,
2013-11-06 15:43:00,47.1,35.9,29.33,WNW,292,0.0,0.0,65,0.00,,,0.25,WUHU21623XXSP,2013-11-06 21:43:00,
2013-11-06 15:48:00,47.1,36.3,29.33,North,0,0.0,0.0,66,0.00,,,0.25,WUHU21623XXSP,2013-11-06 21:48:00,
2013-11-06 15:53:00,47.3,36.5,29.33,West,270,0.9,0.9,66,0.00,,,0.25,WUHU21623XXSP,2013-11-06 21:53:00,
2013-11-06 15:58:00,47.5,36.6,29.33,South,180,0.0,0.9,66,0.00,,,0.25,WUHU21623XXSP,2013-11-06 21:58:00,
2013-11-06 16:03:00,47.3,36.5,29.34,NNE,22,0.0,1.6,66,0.00,,,0.25,WUHU21623XXSP,2013-11-06 22:03:00,
2013-11-06 16:08:00,47.1,36.5,29.34,North,0,0.0,1.6,66,0.00,,,0.25,WUHU21623XXSP,2013-11-06 22:08:00,
2013-11-06 16:13:00,47.1,36.3,29.34,NNE,22,1.1,1.1,65,0.00,,,0.25,WUHU21623XXSP,2013-11-06 22:13:00,
2013-11-06 16:18:00,46.8,35.7,29.35,NNW,337,0.0,1.1,64,0.00,,,0.25,WUHU21623XXSP,2013-11-06 22:18:00,
2013-11-06 16:23:00,46.6,35.0,29.35,WNW,292,0.0,1.1,64,0.00,,,0.25,WUHU21623XXSP,2013-11-06 22:23:00,
2013-11-06 16:28:00,46.2,34.7,29.35,West,270,0.0,1.1,64,0.00,,,0.25,WUHU21623XXSP,2013-11-06 22:28:00,
2013-11-06 16:33:00,45.7,34.2,29.35,WNW,292,0.0,0.0,64,0.00,,,0.25,WUHU21623XXSP,2013-11-06 22:33:00,
2013-11-06 16:38:00,45.3,33.8,29.36,NNE,22,0.0,0.0,64,0.00,,,0.25,WUHU21623XXSP,2013-11-06 22:38:00,
2013-11-06 16:43:00,45.1,34.0,29.36,NNE,22,0.0,0.0,65,0.00,,,0.25,WUHU21623XXSP,2013-11-06 22:43:00,
2013-11-06 16:48:00,44.6,33.3,29.36,NNW,337,0.0,0.0,64,0.00,,,0.25,WUHU21623XXSP,2013-11-06 22:48:00,
2013-11-06 16:53:00,44.2,32.8,29.36,WSW,247,0.0,0.0,64,0.00,,,0.25,WUHU21623XXSP,2013-11-06 22:53:00,
2013-11-06 16:58:00,43.9,32.6,29.36,WSW,247,0.0,0.0,64,0.00,,,0.25,WUHU21623XXSP,2013-11-06 22:58:00,
2013-11-06 17:03:00,43.5,32.1,29.36,West,270,0.0,0.0,64,0.00,,,0.25,WUHU21623XXSP,2013-11-06 23:03:00,
2013-11-06 17:08:00,43.3,32.3,29.36,West,270,0.0,0.0,65,0.00,,,0.25,WUHU21623XXSP,2013-11-06 23:08:00,
2013-11-06 17:13:00,43.2,32.2,29.36,NNE,22,0.0,0.0,65,0.00,,,0.25,WUHU21623XXSP,2013-11-06 23:13:00,
2013-11-06 17:18:00,42.8,32.2,29.37,WSW,247,0.0,0.0,66,0.00,,,0.25,WUHU21623XXSP,2013-11-06 23:18:00,
2013-11-06 17:23:00,42.6,32.0,29.37,WSW,247,0.0,0.0,66,0.00,,,0.25,WUHU21623XXSP,2013-11-06 23:23:00,
2013-11-06 17:28:00,42.4,31.9,29.37,West,270,0.0,0.0,66,0.00,,,0.25,WUHU21623XXSP,2013-11-06 23:28:00,
2013-11-06 17:33:00,42.1,31.5,29.37,West,270,0.0,0.0,66,0.00,,,0.25,WUHU21623XXSP,2013-11-06 23:33:00,
2013-11-06 17:38:00,41.9,31.4,29.38,West,270,0.0,0.0,66,0.00,,,0.25,WUHU21623XXSP,2013-11-06 23:38:00,
2013-11-06 17:43:00,41.7,31.2,29.38,West,270,0.0,0.0,66,0.00,,,0.25,WUHU21623XXSP,2013-11-06 23:43:00,
2013-11-06 17:48:00,41.5,31.0,29.39,West,270,0.0,0.0,66,0.00,,,0.25,WUHU21623XXSP,2013-11-06 23:48:00,
2013-11-06 17:53:00,41.4,30.8,29.39,West,270,0.0,0.0,66,0.00,,,0.25,WUHU21623XXSP,2013-11-06 23:53:00,
2013-11-06 17:58:00,41.2,30.6,29.39,West,270,0.0,0.0,66,0.00,,,0.25,WUHU21623XXSP,2013-11-06 23:58:00,
2013-11-06 18:03:00,41.2,31.0,29.39,West,270,0.0,0.0,67,0.00,,,0.25,WUHU21623XXSP,2013-11-07 00:03:00,
2013-11-06 18:08:00,40.8,30.9,29.39,West,270,0.0,0.0,67,0.00,,,0.25,WUHU21623XXSP,2013-11-07 00:08:00,
2013-11-06 18:13:00,40.8,30.7,29.40,West,270,0.0,0.0,67,0.00,,,0.25,WUHU21623XXSP,2013-11-07 00:13:00,
2013-11-06 18:18:00,40.6,30.9,29.40,West,270,0.0,0.0,68,0.00,,,0.25,WUHU21623XXSP,2013-11-07 00:18:00,
2013-11-06 18:23:00,40.3,30.7,29.40,West,270,0.0,0.0,67,0.00,,,0.25,WUHU21623XXSP,2013-11-07 00:23:00,
2013-11-06 18:28:00,40.1,30.3,29.40,West,270,0.0,0.0,68,0.00,,,0.25,WUHU21623XXSP,2013-11-07 00:28:00,
2013-11-06 18:33:00,39.7,30.0,29.40,West,270,0.0,0.0,68,0.00,,,0.25,WUHU21623XXSP,2013-11-07 00:33:00,
2013-11-06 18:38:00,39.6,29.8,29.40,West,270,0.0,0.0,68,0.00,,,0.25,WUHU21623XXSP,2013-11-07 00:38:00,
2013-11-06 18:43:00,39.4,29.6,29.40,West,270,0.0,0.0,68,0.00,,,0.25,WUHU21623XXSP,2013-11-07 00:43:00,
2013-11-06 18:48:00,39.0,29.7,29.41,West,270,0.0,0.0,69,0.00,,,0.25,WUHU21623XXSP,2013-11-07 00:48:00,
2013-11-06 18:53:00,38.8,29.5,29.41,West,270,0.0,0.0,69,0.00,,,0.25,WUHU21623XXSP,2013-11-07 00:53:00,
2013-11-06 18:58:00,38.5,29.2,29.41,West,270,0.0,0.0,69,0.00,,,0.25,WUHU21623XXSP,2013-11-07 00:58:00,
2013-11-06 19:03:00,38.5,29.2,29.40,West,270,0.0,0.0,69,0.00,,,0.25,WUHU21623XXSP,2013-11-07 01:03:00,
2013-11-06 19:08:00,38.1,29.0,29.40,West,270,0.0,0.0,69,0.00,,,0.25,WUHU21623XXSP,2013-11-07 01:08:00,
2013-11-06 19:13:00,38.1,29.2,29.40,West,270,0.0,0.0,70,0.00,,,0.25,WUHU21623XXSP,2013-11-07 01:13:00,
2013-11-06 19:18:00,37.9,29.1,29.41,West,270,0.0,0.0,70,0.00,,,0.25,WUHU21623XXSP,2013-11-07 01:18:00,
2013-11-06 19:23:00,37.8,29.1,29.41,West,270,0.0,0.0,70,0.00,,,0.25,WUHU21623XXSP,2013-11-07 01:23:00,
2013-11-06 19:28:00,37.6,28.7,29.41,West,270,0.0,0.0,70,0.00,,,0.25,WUHU21623XXSP,2013-11-07 01:28:00,
2013-11-06 19:33:00,37.4,28.9,29.40,West,270,0.0,0.0,71,0.00,,,0.25,WUHU21623XXSP,2013-11-07 01:33:00,
2013-11-06 19:38:00,37.4,28.9,29.40,West,270,0.0,0.0,71,0.00,,,0.25,WUHU21623XXSP,2013-11-07 01:38:00,
2013-11-06 19:43:00,37.6,29.1,29.40,West,270,0.0,0.0,71,0.00,,,0.25,WUHU21623XXSP,2013-11-07 01:43:00,
2013-11-06 19:48:00,37.6,29.4,29.41,West,270,0.0,0.0,71,0.00,,,0.25,WUHU21623XXSP,2013-11-07 01:48:00,
2013-11-06 19:53:00,37.6,29.1,29.41,West,270,0.0,0.0,71,0.00,,,0.25,WUHU21623XXSP,2013-11-07 01:53:00,
2013-11-06 19:58:00,37.2,28.7,29.41,West,270,0.0,0.0,71,0.00,,,0.25,WUHU21623XXSP,2013-11-07 01:58:00,
2013-11-06 20:03:00,36.7,28.2,29.41,West,270,0.0,0.0,71,0.00,,,0.25,WUHU21623XXSP,2013-11-07 02:03:00,
2013-11-06 20:08:00,36.5,28.0,29.41,West,270,0.0,0.0,71,0.00,,,0.25,WUHU21623XXSP,2013-11-07 02:08:00,
2013-11-06 20:13:00,36.3,28.1,29.42,West,270,0.0,0.0,72,0.00,,,0.25,WUHU21623XXSP,2013-11-07 02:13:00,
2013-11-06 20:18:00,36.1,28.0,29.42,West,270,0.0,0.0,72,0.00,,,0.25,WUHU21623XXSP,2013-11-07 02:18:00,
2013-11-06 20:23:00,36.1,28.0,29.42,West,270,0.0,0.0,72,0.00,,,0.25,WUHU21623XXSP,2013-11-07 02:23:00,
2013-11-06 20:28:00,36.0,27.8,29.42,West,270,0.0,0.0,72,0.00,,,0.25,WUHU21623XXSP,2013-11-07 02:28:00,
2013-11-06 20:33:00,35.8,27.6,29.42,West,270,0.0,0.0,72,0.00,,,0.25,WUHU21623XXSP,2013-11-07 02:33:00,
2013-11-06 20:38:00,35.8,27.6,29.42,West,270,0.0,0.0,72,0.00,,,0.25,WUHU21623XXSP,2013-11-07 02:38:00,
2013-11-06 20:43:00,35.8,27.6,29.42,West,270,0.0,0.0,72,0.00,,,0.25,WUHU21623XXSP,2013-11-07 02:43:00,
2013-11-06 20:48:00,35.4,27.2,29.43,West,270,0.0,0.0,72,0.00,,,0.25,WUHU21623XXSP,2013-11-07 02:48:00,
2013-11-06 20:53:00,35.4,27.2,29.43,West,270,0.0,0.0,72,0.00,,,0.25,WUHU21623XXSP,2013-11-07 02:53:00,
2013-11-06 20:58:00,35.4,27.2,29.43,West,270,0.0,0.0,72,0.00,,,0.25,WUHU21623XXSP,2013-11-07 02:58:00,
2013-11-06 21:03:00,35.4,27.2,29.43,West,270,0.0,0.0,72,0.00,,,0.25,WUHU21623XXSP,2013-11-07 03:03:00,
2013-11-06 21:08:00,35.2,27.4,29.43,West,270,0.0,0.0,73,0.00,,,0.25,WUHU21623XXSP,2013-11-07 03:08:00,
2013-11-06 21:13:00,35.2,27.4,29.43,West,270,0.0,0.0,73,0.00,,,0.25,WUHU21623XXSP,2013-11-07 03:13:00,
2013-11-06 21:18:00,34.9,27.0,29.43,West,270,0.0,0.0,73,0.00,,,0.25,WUHU21623XXSP,2013-11-07 03:18:00,
2013-11-06 21:23:00,34.9,27.0,29.44,West,270,0.0,0.0,73,0.00,,,0.25,WUHU21623XXSP,2013-11-07 03:23:00,
2013-11-06 21:28:00,34.9,27.0,29.44,West,270,0.0,0.0,73,0.00,,,0.25,WUHU21623XXSP,2013-11-07 03:28:00,
2013-11-06 21:33:00,34.7,26.9,29.44,West,270,0.0,0.0,73,0.00,,,0.25,WUHU21623XXSP,2013-11-07 03:33:00,
2013-11-06 21:38:00,34.5,26.7,29.44,West,270,0.0,0.0,73,0.00,,,0.25,WUHU21623XXSP,2013-11-07 03:38:00,
2013-11-06 21:43:00,34.5,26.7,29.45,West,270,0.0,0.0,73,0.00,,,0.25,WUHU21623XXSP,2013-11-07 03:43:00,
2013-11-06 21:48:00,34.3,26.5,29.45,West,270,0.0,0.0,73,0.00,,,0.25,WUHU21623XXSP,2013-11-07 03:48:00,
2013-11-06 21:53:00,34.3,26.5,29.45,West,270,0.0,0.0,73,0.00,,,0.25,WUHU21623XXSP,2013-11-07 03:53:00,
2013-11-06 21:58:00,34.3,26.8,29.45,West,270,0.0,0.0,74,0.00,,,0.25,WUHU21623XXSP,2013-11-07 03:58:00,
2013-11-06 22:03:00,34.3,26.8,29.45,West,270,0.0,0.0,74,0.00,,,0.25,WUHU21623XXSP,2013-11-07 04:03:00,
2013-11-06 22:08:00,34.3,26.8,29.45,West,270,0.0,0.0,74,0.00,,,0.25,WUHU21623XXSP,2013-11-07 04:08:00,
2013-11-06 22:13:00,34.2,26.6,29.45,West,270,0.0,0.0,74,0.00,,,0.25,WUHU21623XXSP,2013-11-07 04:13:00,
2013-11-06 22:18:00,34.0,26.5,29.45,West,270,0.0,0.0,74,0.00,,,0.25,WUHU21623XXSP,2013-11-07 04:18:00,
2013-11-06 22:23:00,34.0,26.5,29.46,West,270,0.0,0.0,74,0.00,,,0.25,WUHU21623XXSP,2013-11-07 04:23:00,
2013-11-06 22:28:00,33.8,26.3,29.46,West,270,0.0,0.0,74,0.00,,,0.25,WUHU21623XXSP,2013-11-07 04:28:00,
2013-11-06 22:33:00,33.6,26.1,29.46,West,270,0.0,0.0,74,0.00,,,0.25,WUHU21623XXSP,2013-11-07 04:33:00,
2013-11-06 22:38:00,33.6,26.1,29.46,West,270,0.0,0.0,74,0.00,,,0.25,WUHU21623XXSP,2013-11-07 04:38:00,
2013-11-06 22:56:00,33.4,26.1,29.46,West,270,0.0,0.0,74,0.00,,,0.25,WUHU21623XXSP,2013-11-07 04:56:00,
2013-11-06 23:56:00,32.2,25.5,29.46,West,270,0.0,0.0,76,0.00,,,0.25,WUHU21623XXSP,2013-11-07 05:56:00,